Tracking 28126 objects as of 1-Oct-2023
HD Live streaming from Space Station
objects crossing your sky now

XM-2

Track XM-2 now!
XM-2 is classified as:


NORAD ID: 26724
Int'l Code: 2001-012A
Perigee: 36,089.3 km
Apogee: 36,171.0 km
Inclination: 7.2 °
Period: 1,453.3 minutes
Semi major axis: 42501 km
RCS: 25.1188 m2 (large)
Launch date: March 18, 2001
Source: United States (US)
Launch site: SEA LAUNCH (SEAL)

100 channels of digital music uplinked in the X-band from one or more ground stations.
Your satellite tracking list
Your tracking list is empty




NASA's NSSDC Master Catalog

Two Line Element Set (TLE):
1 26724U 01012A   23273.14249473 -.00000063  00000-0  00000-0 0  9996
2 26724   7.2408  65.8835 0009611  93.3458 281.7841  0.99083569 32429
Source of the keplerian elements: AFSPC